Regional Weather Roundup
Issued by NWS

Home | Current Version | Previous Version | Text Only | Print | Product List | Glossary Off
Versions: 1 2 3 4 5 6 7 8 9 10 11 12 13 14 15 16 17 18 19 20 21 22 23 24 25 26 27 28 29 30 31 32 33 34 35 36 37 38 39 40 41 42 43 44 45 46 47 48 49 50

803
ASUS43 KDMX 232201
RWRIA

WEATHER ROUNDUP FOR IOWA
NATIONAL WEATHER SERVICE DES MOINES IA
400 PM CST THU FEB 23 2017

NOTE: "FAIR" INDICATES FEW OR NO CLOUDS BELOW 12,000 FEET WITH NO
SIGNIFICANT WEATHER AND/OR OBSTRUCTIONS TO VISIBILITY.

* - THESE STATIONS ARE NOT NWS STATIONS...THUS NOT UNDER NWS
QUALITY CONTROL.  THEY ALSO DO NOT REPORT WEATHER SUCH
AS PRECIPITATION OR FOG.

IAZ001>003-012>014-020>022-031>034-043>046-232300-
   NORTHWEST IOWA

CITY           SKY/WX    TMP DP  RH WIND       PRES   REMARKS
CARROLL *      CLOUDY    37  37 100 NE23G29   29.66F WCI  26
CHEROKEE *     LGT SNOW  32  32 100 NE16G24   29.73F WCI  21
DENISON *      CLOUDY    36  34  93 NE17G31   29.63F WCI  25
LE MARS *      LGT RAIN  34  28  80 NE28G40   29.73F WCI  20
ORANGE CITY *  LGT SNOW  34  30  86 NE16G24   29.75S WCI  23
SHELDON *      CLOUDY    32  32 100 NE24G33   29.75S WCI  19
SIOUX CITY     FLURRIES  36  30  79 NE22G33   29.68F WCI  25
SPENCER        FLURRIES  33  28  81 NE22G31   29.78R WCI  21
STORM LAKE *   LGT SNOW  32  30  93 NE29      29.70F WCI  18
$$

IAZ055>058-069>071-079>083-090>094-232300-
   SOUTHWEST IOWA

CITY           SKY/WX    TMP DP  RH WIND       PRES   REMARKS
ATLANTIC *     CLOUDY    41  37  87 NE17G28   29.60F
CLARINDA *     CLOUDY    48  41  76 NE15G21   29.55F
COUNCIL BLFS * CLOUDY    39  37  93 NE15G26   29.61R WCI  31
CRESTON *      PTSUNNY   46  39  76 NE20      29.58R
HARLAN  *      MIX PCPN  39  39 100 NE22G32   29.62F WCI  29
LAMONI         CLOUDY    49  41  74 E13G24    29.52F
RED OAK *      CLOUDY    43  37  81 NE22G31   29.56F
SHENANDOAH *   CLOUDY    46  39  76 N12G22    29.61R
$$

IAZ047>049-059>061-072>074-084-232300-
   CENTRAL IOWA

CITY           SKY/WX    TMP DP  RH WIND       PRES   REMARKS
AMES           LGT RAIN  42  38  85 NE15G24   29.66S
ANKENY *       CLOUDY    45  37  76 NE14G22   29.64S
BOONE *        LGT RAIN  41  39  93 NE20G29   29.64F
CHARITON *     PTSUNNY   50  39  66 NE18G26   29.55S
DES MOINES     CLOUDY    46  38  73 NE17      29.62R
GRINNELL*      CLOUDY    44  39  83 NE20G25   29.63S
KNOXVILLE *    CLOUDY    48  37  66 E17G25    29.57S
MARSHALLTOWN   CLOUDY    42  37  82 NE18      29.66F
NEWTON *       CLOUDY    45  39  81 NE15G22   29.63R
PELLA *        CLOUDY    47  39  72 NE10G24   29.61S
PERRY *        CLOUDY    42  38  85 NE16G22   29.64F
$$

IAZ004>006-015-016-023>025-035-036-232300-
   NORTH CENTRAL IOWA

CITY           SKY/WX    TMP DP  RH WIND       PRES   REMARKS
ALGONA *       MIX PCPN  34  34 100 NE22G30   29.76S WCI  22
CLARION *      CLOUDY    37  37 100 NE17G28   29.72F WCI  28
ESTHERVILLE    CLOUDY    32  28  85 N22       29.79R WCI  19
FORT DODGE *   CLOUDY    37  32  81 NE14G23   29.72R WCI  29
MASON CITY     CLOUDY    38  32  79 NE17      29.77R WCI  28
FOREST CITY *  CLOUDY    36  32  87 NE16G24   29.77R WCI  26
WEBSTER CITY * CLOUDY    39  36  87 NE16G24   29.68S WCI  30
IOWA FALLS *   CLOUDY    41  37  86 NE18      29.69F
$$

IAZ007>011-017>019-026>030-037>042-050>054-066-232300-
   NORTHEAST IOWA

CITY           SKY/WX    TMP DP  RH WIND       PRES   REMARKS
CEDAR RAPIDS   CLOUDY    44  41  89 E21G26    29.64F
CHARLES CITY * CLOUDY    41  36  81 NE15G22   29.76S
CLINTON *      LGT RAIN  45  42  89 NE16      29.71F
DECORAH *      CLOUDY    43  32  65 E13G21    29.75R
DUBUQUE        RAIN      41  38  89 NE15      29.72F FOG
MONTICELLO *   LGT RAIN  43  39  87 E13       29.71S
OELWEIN *      CLOUDY    43  37  81 E17       29.71F
WATERLOO       LGT RAIN  42  36  79 NE13      29.71S
$$

IAZ064-065-067-068-078-232300-
   EAST CENTRAL IOWA

CITY           SKY/WX    TMP DP  RH WIND       PRES   REMARKS
DAVENPORT      CLOUDY    46  42  86 NE18      29.68F
IOWA CITY      CLOUDY    47  40  76 E20G30    29.64F
MUSCATINE *    CLOUDY    50  43  76 E18G24    29.64F
QUAD CITIES    CLOUDY    50  45  83 E17G25    29.66F
$$

IAZ062-063-075>077-085>089-095>099-232300-
   SOUTHEAST IOWA

CITY           SKY/WX    TMP DP  RH WIND       PRES   REMARKS
BURLINGTON     CLOUDY    48  46  93 E18G26    29.60F
FAIRFIELD *    PTSUNNY   46  41  81 E17G25    29.59R
KEOKUK *       CLOUDY    48  46  93 E20G26    29.55F
CENTERVILLE *  CLOUDY    45  43  93 E14G26    29.54F
OTTUMWA        LGT RAIN  49  41  74 E18       29.59S
WASHINGTON *   MOSUNNY   48  43  81 NE22G32   29.61F
$$

ABBREVIATIONS USED IN REMARKS
   TC - TEMPERATURES IN CELSIUS
  WCI - WIND CHILL INDEX
   HX - HEAT INDEX
  VSB - VISIBILITY
$$





USA.gov is the U.S. government's official web portal to all federal, state and local government web resources and services.